K7KLA Weather Reports


time (UTC)temp
C
wind
direction
speed
KPH
gust
KPH
rain 1hr
cm
rain 24hr
cm
rain mn
cm
humidity
%
barometer
mb
20260505153238 20 180 12.9 19.3 0.00 0.00 0.00 63 1008.4
20260505152738 20 180 12.9 19.3 0.00 0.00 0.00 64 1008.4
20260505152233 20 180 12.9 19.3 0.00 0.00 0.00 65 1008.3
20260505151733 20 257 11.3 19.3 0.00 0.00 0.00 66 1008.3
20260505151233 19 244 9.7 17.7 0.00 0.00 0.00 67 1008.2
20260505151001 19 250 9.7 17.7 0.00 0.00 0.00 68 1008.2
20260505150231 19 258 8.0 16.1 0.00 0.00 0.00 68 1008.0
20260505140209 16 180 1.6 3.2 0.00 0.00 0.00 74 1007.4
20260505130208 13 180 6.4 14.5 0.00 0.00 0.00 82 1006.8
20260505124705 11 180 0.0 1.6 0.00 0.00 0.00 82 1006.7
20260505124204 12 180 0.0 1.6 0.00 0.00 0.00 83 1006.6
20260505123703 11 180 1.6 4.8 0.00 0.00 0.00 82 1006.6
20260505123203 12 180 3.2 6.4 0.00 0.00 0.00 81 1006.5
20260505122704 12 180 1.6 6.4 0.00 0.00 0.00 80 1006.5
20260505122203 12 180 3.2 9.7 0.00 0.00 0.00 80 1006.5
20260505121158 12 180 1.6 6.4 0.00 0.00 0.00 83 1006.3
20260505120659 11 180 0.0 3.2 0.00 0.00 0.00 82 1006.3
20260505120152 12 180 0.0 4.8 0.00 0.00 0.00 82 1006.3
20260505115654 11 180 0.0 4.8 0.00 0.00 0.00 83 1006.3
20260505115154 11 180 0.0 1.6 0.00 0.00 0.00 82 1006.2
20260505114411 12 180 1.6 3.2 0.00 0.00 0.00 82 1006.2
20260505113650 12 180 1.6 3.2 0.00 0.00 0.00 82 1006.1
20260505113144 12 180 1.6 4.8 0.00 0.00 0.00 82 1006.1
20260505112642 12 180 1.6 4.8 0.00 0.00 0.00 82 1006.0
20260505112143 12 180 1.6 4.8 0.00 0.00 0.00 81 1006.0
20260505111642 12 180 0.0 3.2 0.00 0.00 0.00 81 1006.0
20260505111140 12 180 1.6 3.2 0.00 0.00 0.00 81 1005.9
20260505110642 12 180 1.6 3.2 0.00 0.00 0.00 81 1005.8
20260505110140 12 180 1.6 3.2 0.00 0.00 0.00 81 1005.8
20260505102137 12 180 1.6 6.4 0.00 0.00 0.00 78 1005.4
20260505101634 12 180 1.6 6.4 0.00 0.00 0.00 78 1005.4
20260505101133 12 180 1.6 3.2 0.00 0.00 0.00 78 1005.3
20260505100634 12 180 1.6 3.2 0.00 0.00 0.00 78 1005.2
20260505100132 12 180 1.6 4.8 0.00 0.00 0.00 77 1005.3
20260505095632 12 180 1.6 4.8 0.00 0.00 0.00 77 1005.2
20260505095131 12 180 1.6 4.8 0.00 0.00 0.00 77 1005.2
20260505094629 12 180 1.6 4.8 0.00 0.00 0.00 77 1005.2
20260505094128 12 180 1.6 3.2 0.00 0.00 0.00 77 1005.2
20260505093630 12 180 1.6 3.2 0.00 0.00 0.00 77 1005.1
20260505093346 12 180 1.6 3.2 0.00 0.00 0.00 77 1005.1
20260505092854 12 180 1.6 4.8 0.00 0.00 0.00 77 1005.1
20260505092128 12 180 1.6 4.8 0.00 0.00 0.00 77 1005.0
20260505091622 12 180 1.6 3.2 0.00 0.00 0.00 77 1005.0
20260505091121 12 180 0.0 1.6 0.00 0.00 0.00 77 1004.9
20260505090621 12 180 0.0 1.6 0.00 0.00 0.00 77 1004.9
20260505090120 12 180 0.0 1.6 0.00 0.00 0.00 76 1004.9
20260505085619 12 180 0.0 4.8 0.00 0.00 0.00 76 1004.8
20260505085342 12 180 1.6 4.8 0.00 0.00 0.00 76 1004.9
20260505084617 12 180 1.6 4.8 0.00 0.00 0.00 75 1004.9
20260505084118 12 180 1.6 4.8 0.00 0.00 0.00 75 1004.8
20260505083618 12 180 1.6 3.2 0.00 0.00 0.00 75 1004.9
20260505083116 13 180 1.6 3.2 0.00 0.00 0.00 74 1004.8
20260505082842 13 180 1.6 3.2 0.00 0.00 0.00 72 1004.8
20260505082115 13 180 1.6 1.6 0.00 0.00 0.00 70 1004.9
20260505081614 13 180 1.6 3.2 0.00 0.00 0.00 69 1004.8
20260505081113 14 180 1.6 6.4 0.00 0.00 0.00 68 1004.8
20260505080612 14 180 4.8 6.4 0.00 0.00 0.00 68 1004.7
20260505080111 15 180 4.8 9.7 0.00 0.00 0.00 66 1004.7
20260505075614 15 180 1.6 9.7 0.00 0.00 0.00 64 1004.5
20260505075337 15 180 0.0 1.6 0.00 0.00 0.00 62 1004.3
20260505074609 15 180 1.6 3.2 0.00 0.00 0.00 62 1004.2
20260505074108 15 180 1.6 3.2 0.00 0.00 0.00 60 1004.1
20260505073608 15 180 0.0 1.6 0.00 0.00 0.00 61 1004.1
20260505073107 16 180 0.0 1.6 0.00 0.00 0.00 61 1004.0
20260505072833 16 180 0.0 1.6 0.00 0.00 0.00 61 1004.0
20260505072110 16 180 0.0 3.2 0.00 0.00 0.00 61 1003.9
20260505071608 15 180 0.0 3.2 0.00 0.00 0.00 61 1003.8
20260505071332 15 180 0.0 3.2 0.00 0.00 0.00 62 1003.8
20260505070605 15 180 0.0 4.8 0.00 0.00 0.00 63 1003.8
20260505070104 16 180 0.0 4.8 0.00 0.00 0.00 62 1003.8
20260505065830 16 180 0.0 1.6 0.00 0.00 0.00 62 1003.7
20260505065103 16 180 0.0 4.8 0.00 0.00 0.00 62 1003.7
20260505064602 16 180 0.0 4.8 0.00 0.00 0.00 63 1003.6
20260505064104 16 180 0.0 4.8 0.00 0.00 0.00 63 1003.6
20260505063600 15 180 0.0 4.8 0.00 0.00 0.00 63 1003.6
20260505063322 15 180 0.0 4.8 0.00 0.00 0.00 64 1003.6
20260505062600 15 180 1.6 6.4 0.00 0.00 0.00 64 1003.7
20260505062058 15 180 1.6 6.4 0.00 0.00 0.00 65 1003.6
20260505061822 15 180 1.6 3.2 0.00 0.00 0.00 64 1003.6
20260505061058 15 180 1.6 4.8 0.00 0.00 0.00 64 1003.6
20260505060557 16 180 1.6 12.9 0.00 0.00 0.00 65 1003.5
20260505060055 16 180 3.2 12.9 0.00 0.00 0.00 64 1003.5
20260505055557 15 180 3.2 8.0 0.00 0.00 0.00 64 1003.5
20260505055055 15 180 1.6 8.0 0.00 0.00 0.00 65 1003.5
20260505054554 15 180 0.0 1.6 0.00 0.00 0.00 66 1003.5
20260505054054 15 180 0.0 1.6 0.00 0.00 0.00 65 1003.5
20260505053552 16 180 0.0 1.6 0.00 0.00 0.00 66 1003.5
20260505053052 16 180 0.0 1.6 0.00 0.00 0.00 66 1003.5
20260505052552 16 180 0.0 0.0 0.00 0.00 0.00 65 1003.5
20260505052050 16 180 0.0 3.2 0.00 0.00 0.00 65 1003.5
20260505051813 16 180 0.0 3.2 0.00 0.00 0.00 66 1003.6
20260505051051 16 180 0.0 3.2 0.00 0.00 0.00 66 1003.6
20260505050818 16 180 0.0 1.6 0.00 0.00 0.00 66 1003.5
20260505041541 17 180 0.0 4.8 0.00 0.00 0.00 64 1003.6
20260505041035 17 180 0.0 4.8 0.00 0.00 0.00 64 1003.5
20260505040537 17 180 0.0 3.2 0.00 0.00 0.00 63 1003.5
20260505040040 17 180 1.6 4.8 0.00 0.00 0.00 64 1003.4
20260505035530 17 180 1.6 4.8 0.00 0.00 0.00 64 1003.4
20260505035030 17 180 1.6 4.8 0.00 0.00 0.00 64 1003.4
20260505034531 17 180 1.6 4.8 0.00 0.00 0.00 64 1003.3
20260505034029 17 180 1.6 4.8 0.00 0.00 0.00 65 1003.3
20260505033526 17 180 0.0 3.2 0.00 0.00 0.00 65 1003.2
20260505033252 17 180 0.0 6.4 0.00 0.00 0.00 65 1003.2
20260505032525 17 180 0.0 6.4 0.00 0.00 0.00 65 1003.0
20260505032026 18 180 0.0 1.6 0.00 0.00 0.00 66 1003.0
20260505031521 18 180 0.0 3.2 0.00 0.00 0.00 65 1003.0
20260505031022 18 180 1.6 4.8 0.00 0.00 0.00 63 1002.9
20260505030522 18 180 1.6 4.8 0.00 0.00 0.00 62 1002.9
20260505030021 19 180 1.6 3.2 0.00 0.00 0.00 62 1002.8
20260505025520 20 180 1.6 4.8 0.00 0.00 0.00 62 1002.8
20260505025020 21 180 1.6 4.8 0.00 0.00 0.00 59 1002.9
20260505024019 22 180 1.6 4.8 0.00 0.00 0.00 55 1002.8
20260505023018 24 70 1.6 6.4 0.00 0.00 0.00 53 1002.9
20260505022519 25 83 1.6 3.2 0.00 0.00 0.00 51 1002.7
20260505022018 26 105 0.0 3.2 0.00 0.00 0.00 51 1002.7
20260505021519 26 81 0.0 0.0 0.00 0.00 0.00 43 1002.8
20260505021018 26 81 0.0 0.0 0.00 0.00 0.00 47 1002.8
20260505020520 26 81 0.0 0.0 0.00 0.00 0.00 53 1002.8
20260505020019 26 81 0.0 0.0 0.00 0.00 0.00 52 1002.9
20260505015520 26 81 0.0 0.0 0.00 0.00 0.00 53 1002.9
20260505015018 26 81 0.0 0.0 0.00 0.00 0.00 48 1002.9
20260505014520 26 81 0.0 3.2 0.00 0.00 0.00 42 1002.9
20260505014018 26 81 1.6 3.2 0.00 0.00 0.00 40 1002.9
20260505013517 26 81 1.6 3.2 0.00 0.00 0.00 38 1003.0
20260505013010 26 77 0.0 3.2 0.00 0.00 0.00 36 1003.2
20260505012511 26 74 0.0 3.2 0.00 0.00 0.00 36 1003.2
20260505012011 26 90 1.6 4.8 0.00 0.00 0.00 35 1003.2
20260505011722 26 76 1.6 4.8 0.00 0.00 0.00 35 1003.2
20260505011006 27 79 1.6 4.8 0.00 0.00 0.00 36 1003.3
20260505010505 27 87 1.6 4.8 0.00 0.00 0.00 35 1003.3
20260505010221 27 79 1.6 4.8 0.00 0.00 0.00 37 1003.3
20260505005500 27 58 0.0 4.8 0.00 0.00 0.00 33 1003.4
20260505004959 27 73 0.0 3.2 0.00 0.00 0.00 35 1003.4
20260505004457 28 185 0.0 0.0 0.00 0.00 0.00 30 1003.5
20260505003958 28 185 1.6 4.8 0.00 0.00 0.00 32 1003.5
20260505003456 28 185 1.6 4.8 0.00 0.00 0.00 30 1003.5
20260505002954 28 208 0.0 3.2 0.00 0.00 0.00 34 1003.6
20260505002455 28 208 1.6 3.2 0.00 0.00 0.00 31 1003.6
20260505001954 28 210 1.6 3.2 0.00 0.00 0.00 31 1003.7
20260505001452 28 210 1.6 6.4 0.00 0.00 0.00 33 1003.7
20260505000951 28 220 3.2 6.4 0.00 0.00 0.00 37 1003.7
20260504235951 28 212 3.2 9.7 0.00 0.00 0.00 32 1003.7
20260504235449 27 331 3.2 9.7 0.00 0.00 0.00 31 1003.7
20260504234948 28 348 1.6 9.7 0.00 0.00 0.00 41 1003.7
20260504234450 27 16 0.0 3.2 0.00 0.00 0.00 33 1003.7
20260504233948 28 353 1.6 4.8 0.00 0.00 0.00 38 1003.7
20260504233448 28 353 1.6 4.8 0.00 0.00 0.00 33 1003.7
20260504232948 28 353 0.0 6.4 0.00 0.00 0.00 35 1003.7
20260504232446 28 2 0.0 6.4 0.00 0.00 0.00 37 1003.7
20260504231944 28 87 1.6 3.2 0.00 0.00 0.00 32 1003.8
20260504231445 28 63 3.2 8.0 0.00 0.00 0.00 34 1003.8
20260504230943 28 293 1.6 8.0 0.00 0.00 0.00 31 1003.8
20260504230707 27 31 1.6 4.8 0.00 0.00 0.00 33 1004.0
20260504225944 27 54 1.6 9.7 0.00 0.00 0.00 32 1004.0
20260504225436 28 57 1.6 9.7 0.00 0.00 0.00 29 1004.0
20260504224936 28 86 1.6 6.4 0.00 0.00 0.00 29 1004.1
20260504224443 29 18 0.0 3.2 0.00 0.00 0.00 33 1004.2
20260504223935 29 217 1.6 3.2 0.00 0.00 0.00 31 1004.2
20260504223435 29 207 1.6 4.8 0.00 0.00 0.00 30 1004.2
20260504222935 29 237 3.2 4.8 0.00 0.00 0.00 33 1004.2
20260504222434 29 247 1.6 4.8 0.00 0.00 0.00 32 1004.3
20260504221934 29 204 0.0 3.2 0.00 0.00 0.00 33 1004.3
20260504221434 28 254 0.0 3.2 0.00 0.00 0.00 32 1004.4
20260504220931 28 254 1.6 4.8 0.00 0.00 0.00 31 1004.5
20260504220430 28 266 1.6 4.8 0.00 0.00 0.00 34 1004.5
20260504215932 28 229 1.6 4.8 0.00 0.00 0.00 31 1004.6
20260504215430 28 240 3.2 6.4 0.00 0.00 0.00 35 1004.6
20260504214929 28 212 1.6 6.4 0.00 0.00 0.00 36 1004.6
20260504214429 28 270 1.6 4.8 0.00 0.00 0.00 33 1004.7
20260504213927 28 271 3.2 6.4 0.00 0.00 0.00 39 1004.8
20260504213427 28 259 3.2 6.4 0.00 0.00 0.00 40 1004.9
20260504212926 28 137 3.2 6.4 0.00 0.00 0.00 37 1004.8
20260504212427 28 170 3.2 6.4 0.00 0.00 0.00 35 1004.9
20260504211928 28 108 3.2 6.4 0.00 0.00 0.00 34 1004.9
20260504211422 28 137 3.2 6.4 0.00 0.00 0.00 36 1005.0
20260504210923 28 119 3.2 6.4 0.00 0.00 0.00 38 1005.1
20260504210424 28 241 3.2 6.4 0.00 0.00 0.00 38 1005.2
20260504210143 27 250 3.2 9.7 0.00 0.00 0.00 40 1005.2
20260504205417 27 278 4.8 9.7 0.00 0.00 0.00 41 1005.2
20260504204917 27 226 4.8 9.7 0.00 0.00 0.00 41 1005.3
20260504204410 27 237 3.2 6.4 0.00 0.00 0.00 39 1005.4
20260504204131 27 243 1.6 4.8 0.00 0.00 0.00 40 1005.3
20260504203409 27 14 3.2 11.3 0.00 0.00 0.00 40 1005.4
20260504202909 27 268 4.8 11.3 0.00 0.00 0.00 37 1005.5
20260504202412 27 285 4.8 11.3 0.00 0.00 0.00 39 1005.5
20260504202127 26 281 4.8 9.7 0.00 0.00 0.00 39 1005.5
20260504201407 26 209 4.8 12.9 0.00 0.00 0.00 41 1005.5
20260504200905 26 341 4.8 12.9 0.00 0.00 0.00 42 1005.5
20260504200406 26 279 4.8 12.9 0.00 0.00 0.00 41 1005.5
20260504195905 26 284 6.4 14.5 0.00 0.00 0.00 40 1005.7
20260504195405 26 318 6.4 14.5 0.00 0.00 0.00 43 1005.7
20260504194905 26 306 3.2 12.9 0.00 0.00 0.00 40 1005.7
20260504194404 26 254 3.2 11.3 0.00 0.00 0.00 40 1005.7
20260504193905 26 218 4.8 12.9 0.00 0.00 0.00 40 1005.7
20260504193405 26 233 6.4 12.9 0.00 0.00 0.00 43 1005.7
20260504192905 26 203 6.4 12.9 0.00 0.00 0.00 41 1005.7
20260504192403 26 274 6.4 12.9 0.00 0.00 0.00 43 1005.7
20260504191905 26 264 6.4 14.5 0.00 0.00 0.00 44 1005.8
20260504191405 26 197 6.4 14.5 0.00 0.00 0.00 43 1005.8
20260504190905 26 180 4.8 11.3 0.00 0.00 0.00 44 1005.8
20260504190405 26 265 6.4 14.5 0.00 0.00 0.00 45 1005.9
20260504190133 26 235 8.0 14.5 0.00 0.00 0.00 44 1005.8
20260504185359 26 243 6.4 14.5 0.00 0.00 0.00 42 1005.9
20260504184858 26 224 4.8 11.3 0.00 0.00 0.00 41 1005.9
20260504184357 25 269 4.8 14.5 0.00 0.00 0.00 43 1005.9
20260504183857 25 224 6.4 14.5 0.00 0.00 0.00 43 1006.0
20260504183352 25 244 6.4 12.9 0.00 0.00 0.00 40 1006.0
20260504182851 25 263 6.4 12.9 0.00 0.00 0.00 44 1006.0
20260504182351 24 287 6.4 12.9 0.00 0.00 0.00 41 1006.0
20260504181846 24 249 8.0 16.1 0.00 0.00 0.00 42 1006.1
20260504181614 24 274 9.7 16.1 0.00 0.00 0.00 45 1006.0
20260504180847 23 275 9.7 16.1 0.00 0.00 0.00 43 1006.1
20260504180337 23 291 9.7 14.5 0.00 0.00 0.00 45 1006.1
20260504175839 23 306 11.3 17.7 0.00 0.00 0.00 44 1006.1
20260504175338 23 286 9.7 17.7 0.00 0.00 0.00 46 1006.1
20260504174837 23 295 9.7 16.1 0.00 0.00 0.00 48 1006.1
20260504174337 23 291 8.0 16.1 0.00 0.00 0.00 47 1006.1
20260504174102 23 274 8.0 16.1 0.00 0.00 0.00 48 1006.1
20260504173330 23 271 9.7 16.1 0.00 0.00 0.00 47 1006.1
20260504172827 23 309 9.7 14.5 0.00 0.00 0.00 49 1006.0
20260504172328 23 300 9.7 16.1 0.00 0.00 0.00 47 1006.0
20260504172044 23 281 9.7 16.1 0.00 0.00 0.00 45 1006.0
20260504171323 23 272 9.7 16.1 0.00 0.00 0.00 46 1006.0
20260504171043 23 295 8.0 16.1 0.00 0.00 0.00 48 1006.0
20260504170319 23 299 6.4 12.9 0.00 0.00 0.00 48 1006.0
20260504160311 21 241 3.2 6.4 0.00 0.00 0.00 51 1006.0